Weather History for KGRI - July, 2013

Change the Weather History Date:

Tuesday, July 2, 2013

  Actual Average Record
Temperature  
Mean Temperature 71 °F 76 °F  
Max Temperature 87 °F 88 °F 106 °F (1990)
Min Temperature 55 °F 64 °F 48 °F (1924)
Degree Days  
Heating Degree Days 0 0  
Month to date heating degree days 0 0  
Since 1 June heating degree days 21 24  
Since 1 July heating degree days 0 0  
Cooling Degree Days 6 11  
Month to date cooling degree days 8 22  
Year to date cooling degree days 362 300  
Since 1 June cooling degree days 267 235  
Growing Degree Days 21 (Base 50)    
Moisture  
Dew Point 53 °F    
Average Humidity 56    
Maximum Humidity 86    
Minimum Humidity 25    
Precipitation  
Precipitation 0.00 in 0.12 in 1.54 in (1906)
Month to date precipitation 0.00 0.24  
Year to date precipitation 15.00 14.49  
Snow  
Snow 0.00 in 0.00 in - ()
Month to date snowfall 0.0 0.0  
Since 1 June snowfall 0.0 0.0  
Since 1 July snowfall 0.0 0.0  
Snow Depth 0.00 in    
Sea Level Pressure  
Sea Level Pressure 30.14 in    
Wind  
Wind Speed 5 mph (NNW)    
Max Wind Speed 16 mph    
Max Gust Speed 20 mph    
Visibility 10 miles    
Events      
T = Trace of Precipitation, MM = Missing Value Source: NWS Daily Summary

Daily Weather History Graph

Daily Weather History Graph

Search for Another Location

Airport or City:

Trip Planner

Search our weather history database for the weather conditions in past years. The results will help you decide how hot, cold, wet, or windy it might be!

Date:

Astronomy

Jul. 02, 2013 Rise Set
Actual Time 6:05 AM CDT 9:08 PM CDT
Civil Twilight 5:32 AM CDT 9:42 PM CDT
Nautical Twilight 4:49 AM CDT 10:24 PM CDT
Astronomical Twilight 3:59 AM CDT 11:14 PM CDT
Moon 2:10 AM CDT (7/2) 4:23 PM CDT (7/2)
Length of Visible Light 16h 09m
Length of Day
15h 03m
Waning Crescent, 26% of the Moon is Illuminated
Jul 2
Waning Crescent
Jul 8
New
Jul 15
First Quarter
Jul 22
Full
Jul 29
Last Quarter

Hourly Weather History & Observations

Time (CDT) Temp. Heat Index Dew Point Humidity Pressure Visibility Wind Dir Wind Speed Gust Speed Precip Events Conditions
12:53 AM 61.0 °F - 54.0 °F 78% 30.17 in 10.0 mi West 3.5 mph - N/A   Clear
1:53 AM 59.0 °F - 53.1 °F 81% 30.17 in 10.0 mi WNW 3.5 mph - N/A   Clear
2:53 AM 57.0 °F - 53.1 °F 87% 30.17 in 10.0 mi West 3.5 mph - N/A   Clear
3:53 AM 57.0 °F - 52.0 °F 83% 30.17 in 10.0 mi WNW 4.6 mph - N/A   Clear
4:53 AM 55.9 °F - 52.0 °F 87% 30.17 in 10.0 mi WNW 4.6 mph - N/A   Clear
5:53 AM 55.0 °F - 51.1 °F 86% 30.18 in 10.0 mi WNW 4.6 mph - N/A   Clear
6:53 AM 55.9 °F - 52.0 °F 87% 30.19 in 10.0 mi West 4.6 mph - N/A   Clear
7:53 AM 61.0 °F - 53.1 °F 75% 30.19 in 10.0 mi NW 4.6 mph - N/A   Clear
9:53 AM 75.0 °F - 55.0 °F 50% 30.18 in 10.0 mi NNW 5.8 mph - N/A   Clear
10:53 AM 78.1 °F - 54.0 °F 43% 30.17 in 10.0 mi NNE 8.1 mph - N/A   Clear
11:53 AM 81.0 °F - 52.0 °F 36% 30.17 in 10.0 mi North 8.1 mph - N/A   Clear
12:53 PM 82.9 °F - 48.0 °F 29% 30.16 in 10.0 mi North 11.5 mph - N/A   Scattered Clouds
1:53 PM 82.0 °F - 48.9 °F 31% 30.14 in 10.0 mi NNE 3.5 mph - N/A   Scattered Clouds
2:53 PM 82.9 °F - 48.0 °F 29% 30.13 in 10.0 mi North 9.2 mph - N/A   Mostly Cloudy
3:53 PM 86.0 °F - 46.0 °F 25% 30.11 in 10.0 mi Variable 4.6 mph - N/A   Scattered Clouds
4:53 PM 84.9 °F - 46.0 °F 26% 30.09 in 10.0 mi Variable 4.6 mph - N/A   Mostly Cloudy
5:32 PM 80.6 °F 80.3 °F 53.6 °F 39% 30.13 in 10.0 mi East 12.7 mph - N/A   Partly Cloudy
5:53 PM 80.1 °F 80.1 °F 55.0 °F 42% 30.10 in 10.0 mi ESE 10.4 mph - N/A   Mostly Cloudy
6:53 PM 79.0 °F - 57.0 °F 47% 30.09 in 10.0 mi SSE 6.9 mph - N/A   Clear
7:53 PM 77.0 °F - 55.0 °F 47% 30.09 in 10.0 mi East 4.6 mph - N/A   Partly Cloudy
8:53 PM 75.0 °F - 55.9 °F 51% 30.07 in 10.0 mi SE 3.5 mph - N/A   Scattered Clouds
9:53 PM 71.1 °F - 55.9 °F 59% 30.08 in 10.0 mi Calm Calm - N/A   Clear
10:53 PM 68.0 °F - 57.9 °F 70% 30.09 in 10.0 mi Calm Calm - N/A   Partly Cloudy
11:53 PM 68.0 °F - 57.0 °F 68% 30.08 in 10.0 mi Calm Calm - N/A   Overcast